Погода в Шуринке

Россия / Кемеровская область (Кузбасс)     54°49′49″N   85°17′25″E
темп.,
°C
ветер,
м/с
пор.,
м/с
влажн.,
%
обл.,
%
осадки,
мм/ч
давл.,
гПа
погр.,
м
18 мая, ср
ср1801:00+20ююз61445100 0.0 1007358
04:00+18юз51346100 0.1 1007306
07:00+17з3756100 0.1 1009209
10:00+22з2441100 0.0 1010627
13:00+26зсз573173 0.0 10102040
16:00+25зсз563395 0.0 10101723
19:00+23сз344097 0.1 1010449
22:00+18в1157100 0.2 101111
19 мая, чт
чт1901:00+16ююз1171100 0.6 101113
04:00+16вюв2269100 0.1 100926
07:00+16юв2476100 0.8 1008112
10:00+23юв574982 0.4 1006397
13:00+29ю61125100 0.4 10032909
16:00+29ююз71229100 0.0 10023294
19:00+23з811515 0.0 10051443
22:00+18юз410595 0.0 1008248
20 мая, пт
пт2001:00+16зюз51257100 0.3 10101369
04:00+11юз49683 0.0 1013216
07:00+13юз5125667 0.0 1014501
10:00+18юз711363 0.0 10142080
13:00+21зюз812285 0.0 10132955
16:00+22зюз8112786 0.0 10123355
19:00+20з5113582 0.0 10132587
22:00+14юз2251100 0.0 101325
21 мая, сб
сб2101:00+13юз3956100 0.0 1014178
04:00+15юз51352100 0.0 1013657
07:00+14ююз3960100 0.0 1014359
10:00+18юз584694 0.0 1014703
13:00+24юз683467 0.0 10111812
16:00+26юз46315 0.0 10102272
19:00+25ююз33354 0.0 10091279
22:00+19ююв22515 0.0 100911
22 мая, вс
вс2201:00+16юв35586 0.0 100762
04:00+14юв35637 0.0 100669
07:00+16юв2861100 0.0 1004186
10:00+24юв4638100 0.0 1003548
13:00+29ююв2426100 0.0 10021626
16:00+28юз4430100 0.0 10021918
19:00+25ююз3741100 0.0 1003297
22:00+20юз22520 0.0 100414